Wind_Speed
14 16 17 18 20 22 23 24 27 32 35 38 42 45 47 47 45 44 43 42 40 40 41 42 43 44 44 43 43 44 44 45 46 47 47 48 47 47 48 49 50 50 51 52
16 18 18 18 19 20 21 22 24 25 27 29 33 36 39 41 41 41 41 40 39 38 38 38 40 41 42 42 43 44 44 46 48 49 50 51 51 50 50 50 51 53 54 56
20 21 20 21 22 23 25 26 27 28 28 29 32 31 34 35 36 36 37 37 37 36 36 36 38 40 41 42 43 45 47 48 49 50 51 51 52 51 51 53 54 54 54 55
21 21 22 23 25 25 28 28 28 29 29 29 33 33 34 38 36 37 38 39 39 39 39 39 40 42 43 44 45 46 47 48 49 51 52 52 53 54 54 56 57 55 54 54
22 23 23 24 25 25 27 27 26 27 27 28 29 32 29 36 35 37 39 40 41 41 42 43 44 44 45 45 46 47 48 50 51 53 55 56 57 58 59 59 59 57 55 54
17 19 19 20 21 21 22 22 23 23 24 24 25 28 29 29 30 32 34 35 35 36 37 38 40 41 43 44 45 47 49 51 53 55 57 59 60 61 62 62 61 58 56 52
10 10 12 12 14 16 16 17 17 16 16 17 22 23 26 27 27 29 29 28 27 27 28 29 31 33 35 38 40 43 46 49 52 54 56 58 60 62 63 62 60 58 54 48
8 10 11 12 13 15 15 15 16 17 16 16 17 18 20 21 23 25 25 25 24 25 25 26 28 30 32 35 37 40 43 46 49 52 55 57 58 60 61 60 58 55 50 44
9 12 13 12 13 13 15 15 17 19 19 18 18 19 20 22 24 25 25 26 26 27 28 29 30 31 33 34 36 39 42 46 49 52 55 56 57 58 58 56 54 51 46 43
11 11 12 11 12 14 16 18 19 21 24 24 23 22 24 25 27 29 30 31 31 31 32 33 33 34 35 37 39 41 44 47 50 52 54 55 55 54 52 50 48 46 43 41
11 11 13 15 16 18 20 21 24 26 28 30 30 28 28 29 33 35 35 34 33 33 34 35 36 36 37 39 40 42 45 47 49 51 50 49 48 48 45 44 42 41 39 37
14 15 16 19 20 22 23 24 27 29 31 33 35 35 33 33 37 40 40 38 36 35 35 36 36 37 38 39 40 41 43 44 44 43 41 40 41 40 39 38 37 36 34 33
15 15 16 17 20 22 22 23 25 29 32 33 34 35 35 35 37 40 42 40 38 37 36 35 35 36 37 37 37 38 38 38 38 35 32 31 32 33 34 34 34 33 32 31
14 14 15 16 18 22 23 22 24 26 29 31 31 32 32 34 36 36 38 38 37 35 35 34 34 34 34 34 34 33 33 33 32 28 25 22 22 26 26 28 29 29 29 29
13 13 14 16 18 20 20 22 25 28 28 30 30 31 31 32 32 32 33 33 32 32 32 32 32 32 31 30 29 29 28 27 25 21 19 17 15 16 16 17 18 19 22 23
15 15 16 16 19 21 21 22 26 27 28 29 30 30 30 31 30 30 30 29 29 30 30 30 30 29 28 27 25 24 23 21 20 18 14 13 12 12 12 12 13 13 15 16
17 18 18 18 20 21 21 23 25 27 28 29 31 30 31 31 31 30 30 29 29 29 29 28 27 27 26 24 21 20 19 18 16 15 14 13 12 11 11 11 12 13 14 15
20 22 22 22 22 21 21 24 27 28 28 30 32 33 33 34 33 31 32 31 29 29 28 27 26 25 23 21 19 17 16 15 15 14 13 12 11 11 11 12 13 14 15 17
24 25 26 26 26 25 26 27 28 30 29 31 32 33 34 35 34 33 34 33 31 30 28 27 25 24 22 19 17 16 14 13 13 13 12 12 12 12 13 14 15 16 17 18
27 28 29 30 30 30 32 32 32 32 33 33 33 34 35 35 35 34 35 34 33 31 28 27 25 24 21 18 16 14 13 12 11 11 11 12 12 13 14 15 16 16 17 16
29 31 32 32 32 34 35 35 35 36 37 36 36 36 37 36 35 35 35 35 33 31 29 27 25 24 21 18 15 13 11 10 10 10 11 11 12 12 12 13 13 13 13 12
31 33 35 35 35 37 38 38 39 39 39 39 39 39 39 38 36 35 35 34 34 32 29 27 26 25 22 18 15 12 11 10 9 9 9 10 9 9 9 8 8 8 8 8
33 35 37 38 39 40 41 42 42 42 42 42 41 40 40 39 37 36 35 34 33 32 31 28 26 26 24 21 18 15 13 12 11 10 10 9 8 8 7 7 7 7 7 8
37 38 40 41 43 44 45 46 47 47 46 46 45 42 40 39 38 37 36 34 33 33 31 29 26 27 27 24 21 19 17 15 14 12 11 10 9 8 8 7 8 8 8 9
40 41 42 44 46 46 48 50 51 52 52 51 48 44 42 40 39 38 37 35 34 33 32 30 28 28 29 28 25 22 20 18 17 15 13 12 12 11 10 10 10 10 10 10
43 44 45 47 49 51 53 54 56 56 56 55 52 49 45 43 41 40 39 37 36 34 32 31 29 29 31 31 29 26 23 21 20 18 16 15 14 13 13 13 13 13 13 13
Wind_Direction
236 239 242 246 248 251 253 254 255 255 255 256 257 259 262 265 267 268 269 270 270 270 270 271 271 271 270 270 269 267 266 265 265 265 266 266 267 268 269 270 271 270 270 269
241 244 248 253 257 260 260 260 259 260 259 259 260 261 262 264 266 268 270 270 270 269 268 267 267 267 268 268 268 267 266 266 267 267 268 268 268 269 271 273 274 274 271 269
247 253 256 260 262 264 265 264 264 263 263 263 264 264 264 262 263 264 265 266 266 265 265 264 263 264 265 266 266 266 267 268 268 269 270 270 271 270 273 276 278 278 276 274
255 259 263 265 267 268 269 268 268 268 266 264 267 268 268 269 265 263 263 262 263 263 264 263 263 263 263 264 265 265 266 266 269 271 273 274 274 275 277 279 281 283 282 282
261 263 264 266 268 268 270 272 271 271 269 268 270 271 271 272 273 269 266 265 265 265 265 266 266 266 266 267 267 268 268 268 270 271 274 275 276 277 278 281 282 284 287 286
261 263 264 266 269 271 273 275 276 277 278 280 275 274 275 275 276 273 271 270 270 269 269 269 269 269 269 269 269 269 269 270 270 271 273 274 275 276 278 280 282 284 286 286
267 269 270 270 274 277 278 281 285 287 287 285 283 279 277 275 271 270 272 273 273 273 273 274 274 274 273 273 273 272 273 273 273 273 273 273 274 275 276 278 280 282 284 283
272 277 273 272 274 277 278 282 283 282 278 276 284 285 281 279 274 272 273 273 274 276 278 279 281 281 281 280 279 278 278 277 276 275 274 274 274 274 275 276 277 278 278 278
273 279 283 281 279 278 281 279 281 285 285 285 284 283 281 282 281 278 278 277 277 278 280 283 285 287 288 288 287 286 284 282 280 278 276 274 273 272 272 273 272 271 269 269
273 277 284 286 286 286 285 285 285 285 289 288 286 285 283 284 282 280 280 280 280 281 283 286 289 291 294 295 295 294 292 290 287 284 280 275 271 269 269 268 267 263 262 263
276 279 283 286 287 288 287 286 286 287 288 289 289 286 285 285 284 283 282 281 282 283 284 287 291 294 297 300 300 300 299 298 296 290 283 274 269 266 263 261 258 256 256 257
280 282 284 286 284 282 284 287 289 291 292 292 293 293 292 288 285 283 283 283 283 283 284 287 291 295 299 303 305 304 303 304 303 296 284 273 264 257 253 251 248 247 248 250
290 291 293 296 298 292 289 292 292 291 293 296 297 300 300 295 290 288 285 284 283 282 283 285 290 296 301 305 308 308 307 309 309 302 288 272 259 249 244 242 241 241 243 245
303 303 302 303 299 300 307 307 300 297 299 302 304 303 302 299 297 295 292 288 285 284 282 284 290 296 302 307 310 311 312 312 309 303 293 277 258 246 238 238 238 236 238 239
317 316 312 311 306 307 311 307 303 304 307 306 306 304 306 304 304 302 297 292 288 284 282 283 289 296 303 308 311 312 315 317 315 308 297 284 271 255 244 240 237 234 235 238
323 322 321 318 312 315 315 308 306 309 312 309 307 308 308 309 309 308 305 299 291 285 282 283 288 295 302 308 310 312 315 318 316 309 299 289 276 273 268 263 261 258 255 254
324 324 325 322 319 321 318 310 310 312 314 311 310 313 313 312 313 311 306 302 295 288 283 284 288 294 301 306 309 308 312 315 313 309 301 291 285 283 282 280 278 275 272 270
326 326 327 327 325 326 318 311 311 312 313 310 311 313 313 312 313 310 306 302 298 292 283 282 286 291 297 303 305 305 307 310 308 304 300 294 288 287 285 283 280 278 278 275
325 323 325 326 325 326 317 314 315 313 312 307 309 310 310 311 310 308 305 303 300 294 287 279 280 284 291 296 300 300 301 302 302 299 293 290 286 284 282 280 278 277 276 274
319 319 319 320 320 319 314 315 314 312 310 309 310 309 308 308 307 306 303 304 300 295 289 278 274 276 282 288 291 292 292 293 292 290 288 287 284 282 279 276 273 273 274 276
312 311 310 311 312 311 310 311 310 309 309 310 309 306 305 304 305 304 302 301 300 297 291 279 268 267 270 277 281 280 279 281 283 285 284 283 281 280 278 274 270 269 270 268
306 306 307 308 309 308 308 309 307 307 308 307 306 304 303 302 302 302 300 299 298 295 292 281 266 259 260 263 266 267 266 267 272 277 280 281 281 280 276 267 260 255 251 248
305 304 304 306 307 305 305 305 305 305 305 305 304 303 300 299 299 298 297 296 293 292 290 283 266 254 251 252 254 255 256 259 263 267 270 272 272 269 263 254 244 238 235 236
303 303 304 304 305 304 303 302 302 303 302 302 302 300 297 295 295 295 294 293 290 288 286 282 268 253 247 246 248 251 253 255 255 257 261 262 261 258 253 246 241 239 238 240
305 305 304 303 300 299 299 298 298 299 300 300 299 297 292 290 289 289 290 289 288 286 283 280 268 253 245 243 243 247 250 250 250 251 253 254 255 254 252 250 247 246 247 250
308 306 303 300 298 297 296 295 296 296 296 296 295 292 289 286 284 283 284 285 283 282 279 277 269 256 245 240 240 243 246 247 246 247 248 250 251 253 253 253 253 253 254 255
Height
5877 5879 5879 5880 5882 5883 5884 5885 5885 5884 5885 5887 5886 5886 5885 5885 5886 5886 5886 5886 5886 5886 5885 5885 5884 5883 5883 5883 5882 5882 5881 5880 5879 5878 5876 5875 5874 5872 5871 5869 5867 5865 5864 5862
5876 5876 5877 5878 5878 5879 5880 5880 5880 5879 5879 5880 5879 5879 5879 5878 5878 5878 5877 5877 5877 5877 5876 5876 5875 5874 5874 5874 5873 5872 5872 5871 5870 5869 5867 5866 5865 5863 5861 5859 5857 5855 5852 5850
5872 5873 5874 5875 5875 5876 5875 5876 5875 5875 5875 5874 5873 5874 5872 5871 5871 5870 5870 5869 5868 5868 5868 5867 5867 5866 5866 5865 5864 5864 5863 5862 5860 5859 5857 5855 5853 5851 5850 5848 5845 5842 5839 5836
5869 5869 5870 5871 5871 5871 5870 5869 5869 5869 5870 5869 5868 5868 5866 5863 5864 5863 5862 5861 5861 5860 5860 5859 5858 5857 5856 5856 5855 5854 5853 5851 5850 5848 5845 5843 5841 5839 5837 5835 5833 5830 5826 5824
5864 5865 5866 5866 5865 5865 5864 5863 5863 5863 5863 5863 5862 5861 5861 5855 5855 5854 5853 5852 5852 5852 5851 5850 5848 5848 5847 5846 5845 5844 5842 5841 5840 5837 5835 5831 5829 5826 5824 5823 5821 5817 5816 5814
5860 5860 5860 5860 5859 5859 5858 5858 5858 5857 5857 5857 5855 5854 5853 5850 5847 5845 5843 5843 5842 5842 5841 5839 5838 5837 5836 5835 5833 5832 5831 5829 5827 5825 5822 5818 5816 5813 5811 5809 5807 5806 5804 5803
5857 5857 5856 5856 5856 5855 5855 5855 5854 5854 5854 5853 5848 5847 5846 5842 5840 5838 5836 5835 5834 5833 5832 5830 5828 5827 5825 5823 5822 5820 5818 5816 5813 5811 5808 5805 5802 5799 5797 5795 5794 5793 5792 5792
5856 5856 5854 5853 5853 5852 5851 5850 5850 5849 5849 5847 5844 5842 5840 5836 5833 5831 5830 5829 5827 5826 5824 5822 5820 5818 5816 5814 5811 5808 5805 5802 5799 5796 5793 5790 5787 5784 5783 5781 5781 5781 5781 5781
5854 5854 5852 5850 5849 5849 5847 5846 5845 5844 5842 5841 5840 5838 5835 5832 5828 5826 5824 5822 5820 5819 5817 5815 5812 5809 5807 5804 5800 5797 5793 5789 5784 5780 5777 5774 5771 5769 5767 5767 5768 5769 5770 5772
5852 5851 5850 5848 5847 5846 5845 5843 5841 5839 5837 5836 5835 5834 5831 5826 5823 5820 5818 5815 5813 5811 5808 5805 5802 5799 5796 5792 5788 5783 5778 5773 5768 5763 5759 5756 5754 5752 5752 5752 5754 5756 5758 5760
5849 5849 5848 5846 5844 5843 5841 5840 5837 5834 5832 5830 5828 5829 5824 5821 5816 5813 5810 5807 5805 5802 5799 5796 5793 5789 5785 5780 5775 5769 5763 5757 5750 5744 5739 5737 5736 5736 5737 5738 5741 5743 5746 5749
5845 5845 5844 5842 5840 5838 5836 5834 5831 5828 5825 5822 5818 5820 5816 5813 5807 5803 5800 5799 5796 5793 5790 5787 5783 5780 5775 5769 5763 5756 5750 5743 5735 5728 5723 5721 5721 5721 5723 5726 5729 5732 5736 5738
5841 5841 5839 5838 5836 5833 5830 5829 5825 5822 5818 5815 5812 5812 5805 5802 5797 5793 5789 5788 5786 5783 5781 5777 5774 5770 5765 5759 5752 5746 5739 5732 5724 5718 5713 5710 5710 5710 5712 5716 5719 5723 5727 5729
5837 5836 5835 5834 5831 5827 5824 5822 5818 5815 5811 5808 5805 5802 5798 5792 5787 5783 5778 5775 5774 5772 5770 5768 5765 5761 5756 5750 5743 5737 5730 5724 5717 5712 5708 5705 5704 5705 5707 5709 5712 5716 5719 5722
5833 5832 5830 5828 5824 5822 5819 5816 5812 5808 5805 5801 5798 5793 5789 5783 5778 5774 5769 5765 5763 5762 5760 5758 5756 5752 5747 5742 5736 5730 5724 5718 5713 5709 5706 5704 5704 5704 5705 5706 5708 5711 5714 5717
5829 5827 5826 5823 5819 5816 5814 5810 5806 5802 5798 5794 5789 5786 5781 5775 5770 5765 5761 5757 5755 5753 5751 5749 5747 5743 5739 5734 5729 5724 5719 5714 5710 5707 5705 5704 5704 5704 5704 5705 5706 5708 5711 5712
5825 5822 5821 5819 5815 5812 5809 5804 5800 5796 5792 5788 5783 5780 5773 5768 5763 5758 5753 5750 5747 5744 5742 5740 5738 5735 5732 5728 5723 5719 5715 5711 5708 5705 5703 5702 5702 5702 5702 5702 5704 5705 5707 5709
5821 5818 5815 5813 5810 5807 5805 5798 5794 5790 5787 5780 5776 5771 5766 5761 5756 5751 5746 5742 5739 5736 5734 5732 5730 5728 5725 5721 5718 5715 5711 5709 5706 5703 5702 5701 5700 5700 5700 5700 5701 5702 5703 5705
5817 5813 5810 5807 5804 5800 5797 5791 5787 5782 5779 5773 5768 5763 5758 5753 5749 5745 5739 5734 5731 5728 5725 5724 5722 5720 5718 5715 5713 5710 5708 5705 5703 5702 5700 5699 5698 5698 5698 5698 5698 5699 5700 5701
5811 5808 5805 5801 5797 5793 5790 5784 5779 5775 5770 5764 5760 5754 5749 5744 5741 5738 5731 5727 5723 5720 5717 5715 5714 5713 5712 5710 5707 5705 5704 5702 5701 5699 5698 5697 5696 5696 5696 5695 5695 5696 5696 5696
5806 5802 5798 5794 5790 5786 5781 5776 5771 5767 5764 5757 5751 5746 5741 5736 5732 5728 5723 5718 5715 5712 5709 5707 5706 5705 5705 5704 5702 5701 5700 5699 5698 5697 5696 5695 5694 5693 5693 5692 5692 5692 5692 5692
5800 5795 5791 5786 5783 5780 5771 5766 5762 5758 5753 5748 5742 5737 5732 5727 5722 5718 5713 5709 5705 5703 5701 5698 5697 5697 5698 5698 5697 5697 5696 5695 5695 5694 5693 5692 5691 5691 5690 5689 5689 5689 5689 5689
5792 5788 5782 5778 5776 5769 5762 5756 5751 5746 5741 5736 5731 5727 5722 5717 5713 5709 5704 5700 5696 5694 5692 5690 5689 5689 5690 5691 5691 5692 5692 5691 5691 5690 5690 5689 5689 5688 5688 5687 5687 5687 5687 5687
5783 5778 5773 5768 5763 5757 5751 5744 5739 5734 5728 5723 5718 5714 5709 5705 5702 5698 5694 5691 5687 5684 5682 5681 5680 5681 5682 5683 5685 5685 5686 5686 5686 5686 5686 5686 5686 5685 5685 5685 5684 5684 5685 5685
5774 5769 5763 5757 5751 5745 5738 5731 5726 5720 5715 5710 5705 5700 5696 5692 5689 5686 5683 5680 5677 5674 5672 5671 5670 5671 5673 5675 5677 5678 5679 5680 5680 5681 5681 5681 5681 5681 5681 5681 5681 5682 5682 5682
5762 5757 5751 5745 5737 5731 5725 5718 5712 5706 5701 5695 5691 5686 5681 5678 5675 5672 5670 5668 5665 5663 5661 5661 5660 5661 5663 5665 5668 5670 5671 5673 5674 5675 5675 5676 5676 5677 5677 5677 5677 5677 5678 5678